timestamp,surface_pressure_avg,surface_temp_avg,battery_voltage,lat,long
2021-06-19 00:09:01+00:00,214.5264,11.5,13.44,47.84626,-54.09684
2021-06-19 00:19:01+00:00,222.6398,11.49,13.05,47.84626,-54.09684
2021-06-19 00:29:01+00:00,218.3647,11.5,13.05,47.84626,-54.09684
2021-06-19 00:39:01+00:00,215.5865,11.49,13.05,47.84626,-54.09684
2021-06-19 00:49:01+00:00,219.0614,11.47,13.05,47.84626,-54.09684
2021-06-19 00:59:01+00:00,219.3098,11.4,13.05,47.84626,-54.09684
2021-06-19 01:09:01+00:00,219.3214,11.4,13.05,47.84626,-54.09684
2021-06-19 01:19:01+00:00,220.8965,11.47,12.73,47.84626,-54.09684
2021-06-19 01:29:01+00:00,220.7348,11.5,12.73,47.84626,-54.09684
2021-06-19 01:39:01+00:00,223.8681,11.5,12.73,47.84626,-54.09684
2021-06-19 01:49:01+00:00,229.7864,11.5,12.73,47.84626,-54.09684
2021-06-19 01:59:01+00:00,231.8314,11.5,12.73,47.84626,-54.09684
2021-06-19 02:09:01+00:00,229.8531,11.49,12.73,47.84626,-54.09684
2021-06-19 02:19:00+00:00,234.0065,11.47,12.65,47.84626,-54.09684
2021-06-19 02:29:00+00:00,239.5831,11.47,12.65,47.84626,-54.09684
2021-06-19 02:39:00+00:00,240.6131,11.48,12.65,47.84626,-54.09684
2021-06-19 02:49:00+00:00,242.6131,11.49,12.65,47.84626,-54.09684
2021-06-19 02:59:00+00:00,250.6547,11.49,12.65,47.84626,-54.09684
2021-06-19 03:09:00+00:00,260.2814,11.49,12.65,47.84626,-54.09684
2021-06-19 03:19:00+00:00,262.5048,11.49,12.65,47.84626,-54.09684
2021-06-19 03:29:00+00:00,264.3698,11.49,12.65,47.84626,-54.09684
2021-06-19 03:39:00+00:00,269.0064,11.49,12.65,47.84626,-54.09684
2021-06-19 03:49:00+00:00,279.688,11.49,12.65,47.84626,-54.09684
2021-06-19 03:59:00+00:00,288.3713,11.49,12.65,47.84626,-54.09684
2021-06-19 04:09:00+00:00,292.1163,11.49,12.65,47.84626,-54.09684
2021-06-19 04:19:00+00:00,297.853,11.5,12.65,47.84626,-54.09684
2021-06-19 04:29:00+00:00,306.1931,11.5,12.65,47.84626,-54.09684
2021-06-19 04:39:00+00:00,307.0363,11.5,12.65,47.84626,-54.09684
2021-06-19 04:49:00+00:00,304.348,11.5,12.65,47.84626,-54.09684
2021-06-19 04:59:00+00:00,308.3547,11.5,12.65,47.84626,-54.09684
2021-06-19 05:09:00+00:00,313.638,11.5,12.65,47.84626,-54.09684
2021-06-19 05:19:01+00:00,314.4896,11.5,12.65,47.84626,-54.09684
2021-06-19 05:29:01+00:00,315.2963,11.5,12.65,47.84626,-54.09684
2021-06-19 05:39:01+00:00,323.613,11.5,12.65,47.84626,-54.09684
2021-06-19 05:49:01+00:00,325.1479,11.5,12.65,47.84626,-54.09684
2021-06-19 05:59:01+00:00,323.033,11.5,12.65,47.84626,-54.09684
2021-06-19 06:09:01+00:00,324.043,11.5,12.65,47.84626,-54.09684
2021-06-19 06:19:00+00:00,328.913,11.5,12.65,47.84626,-54.09684
2021-06-19 06:29:00+00:00,326.8397,11.51,12.65,47.84626,-54.09684
2021-06-19 06:39:00+00:00,321.1697,11.58,12.65,47.84626,-54.09684
2021-06-19 06:49:00+00:00,319.2064,11.7,12.65,47.84626,-54.09684
2021-06-19 06:59:00+00:00,320.2679,11.7,12.65,47.84626,-54.09684
2021-06-19 07:09:00+00:00,318.623,11.75,12.65,47.84626,-54.09684
2021-06-19 07:19:00+00:00,315.938,11.7,12.65,47.84626,-54.09684
2021-06-19 07:29:00+00:00,315.6146,11.69,12.65,47.84626,-54.09684
2021-06-19 07:39:00+00:00,314.8063,11.69,12.65,47.84626,-54.09684
2021-06-19 07:49:00+00:00,308.9931,11.71,12.65,47.84626,-54.09684
2021-06-19 07:59:00+00:00,303.7164,11.7,12.65,47.84626,-54.09684
2021-06-19 08:09:00+00:00,304.9764,11.5,12.65,47.84626,-54.09684
2021-06-19 08:19:00+00:00,302.468,11.52,12.57,47.84626,-54.09684
2021-06-19 08:29:00+00:00,292.3498,11.71,12.57,47.84626,-54.09684
2021-06-19 08:39:00+00:00,285.3447,11.8,12.57,47.84626,-54.09684
2021-06-19 08:49:00+00:00,287.2414,11.8,12.57,47.84626,-54.09684
2021-06-19 08:59:00+00:00,279.433,11.86,12.57,47.84626,-54.09684
2021-06-19 09:09:00+00:00,263.4881,11.94,12.57,47.84626,-54.09684
2021-06-19 09:19:01+00:00,259.3597,12.0,12.73,47.84626,-54.09684
2021-06-19 09:29:01+00:00,263.4547,12.1,12.73,47.84626,-54.09684
2021-06-19 09:39:01+00:00,253.7564,12.1,12.73,47.84626,-54.09684
2021-06-19 09:49:01+00:00,239.4148,12.1,12.73,47.84626,-54.09684
2021-06-19 09:59:01+00:00,235.8714,12.09,12.73,47.84626,-54.09684
2021-06-19 10:09:01+00:00,235.7381,12.1,12.73,47.84626,-54.09684
2021-06-19 10:19:00+00:00,227.8398,12.1,13.13,47.84626,-54.09684
2021-06-19 10:29:00+00:00,220.8431,12.1,13.13,47.84626,-54.09684
2021-06-19 10:39:00+00:00,218.2564,12.1,13.13,47.84626,-54.09684
2021-06-19 10:49:00+00:00,213.2215,12.15,13.13,47.84626,-54.09684
2021-06-19 10:59:00+00:00,205.6598,12.12,13.13,47.84626,-54.09684
2021-06-19 11:09:00+00:00,202.6014,12.1,13.13,47.84626,-54.09684
2021-06-19 11:19:01+00:00,202.7031,12.1,13.76,47.84626,-54.09684
2021-06-19 11:29:01+00:00,200.6531,12.09,13.76,47.84626,-54.09684
2021-06-19 11:39:01+00:00,197.1698,12.1,13.76,47.84626,-54.09684
2021-06-19 11:49:01+00:00,196.8381,12.14,13.76,47.84626,-54.09684
2021-06-19 11:59:01+00:00,200.1548,12.2,13.76,47.84626,-54.09684
2021-06-19 12:09:01+00:00,204.4514,12.2,13.76,47.84626,-54.09684
2021-06-19 12:19:01+00:00,204.4115,12.16,14.4,47.84626,-54.09684
2021-06-19 12:29:01+00:00,202.9198,12.2,14.4,47.84626,-54.09684
2021-06-19 12:39:01+00:00,203.5964,12.1,14.4,47.84626,-54.09684
2021-06-19 12:49:01+00:00,206.1431,12.0,14.4,47.84626,-54.09684
2021-06-19 12:59:01+00:00,202.3331,11.9,14.4,47.84626,-54.09684
2021-06-19 13:09:01+00:00,201.0681,11.9,14.4,47.84626,-54.09684
2021-06-19 13:19:00+00:00,203.2881,11.9,14.32,47.84626,-54.09684
2021-06-19 13:29:00+00:00,205.7614,11.9,14.32,47.84626,-54.09684
2021-06-19 13:39:00+00:00,207.7631,11.84,14.32,47.84626,-54.09684
2021-06-19 13:49:00+00:00,214.5348,11.7,14.32,47.84626,-54.09684
2021-06-19 13:59:00+00:00,224.0514,11.66,14.32,47.84626,-54.09684
2021-06-19 14:09:00+00:00,224.2332,11.62,14.32,47.84626,-54.09684
2021-06-19 14:19:00+00:00,221.1314,11.74,14.24,47.84626,-54.09684
2021-06-19 14:29:00+00:00,223.8798,11.7,14.24,47.84626,-54.09684
2021-06-19 14:39:00+00:00,229.3331,11.68,14.24,47.84626,-54.09684
2021-06-19 14:49:00+00:00,228.9331,11.7,14.24,47.84626,-54.09684
2021-06-19 14:59:00+00:00,231.0064,11.71,14.24,47.84626,-54.09684
2021-06-19 15:09:00+00:00,236.6714,11.7,14.24,47.84626,-54.09684
2021-06-19 15:19:01+00:00,240.1764,11.6,14.24,47.84626,-54.09684
2021-06-19 15:29:01+00:00,243.5664,11.3,14.24,47.84626,-54.09684
2021-06-19 15:39:01+00:00,252.3214,10.8,14.24,47.84626,-54.09684
2021-06-19 15:49:01+00:00,261.0831,10.4,14.24,47.84626,-54.09684
2021-06-19 15:59:01+00:00,266.0847,10.5,14.24,47.84626,-54.09684
2021-06-19 16:09:01+00:00,268.3631,10.45,14.24,47.84626,-54.09684
2021-06-19 16:19:01+00:00,276.3098,10.2,14.32,47.84626,-54.09684
2021-06-19 16:29:01+00:00,285.4364,10.1,14.32,47.84626,-54.09684
2021-06-19 16:39:01+00:00,291.223,10.1,14.32,47.84626,-54.09684
2021-06-19 16:49:01+00:00,294.3314,10.16,14.32,47.84626,-54.09684
2021-06-19 16:59:01+00:00,301.288,10.19,14.32,47.84626,-54.09684
2021-06-19 17:09:01+00:00,308.0613,10.2,14.32,47.84626,-54.09684
2021-06-19 17:19:01+00:00,313.223,10.17,14.08,47.84626,-54.09684
2021-06-19 17:29:01+00:00,317.4613,10.11,14.08,47.84626,-54.09684
2021-06-19 17:39:01+00:00,318.8914,10.1,14.08,47.84626,-54.09684
2021-06-19 17:49:01+00:00,323.5313,10.0,14.08,47.84626,-54.09684
2021-06-19 17:59:01+00:00,328.0263,10.0,14.08,47.84626,-54.09684
2021-06-19 18:09:01+00:00,327.9046,10.01,14.08,47.84626,-54.09684
2021-06-19 18:19:00+00:00,322.6463,10.23,14.08,47.84626,-54.09684
2021-06-19 18:29:00+00:00,321.3063,10.2,14.08,47.84626,-54.09684
2021-06-19 18:39:00+00:00,324.8996,10.12,14.08,47.84626,-54.09684
2021-06-19 18:49:00+00:00,324.903,10.27,14.08,47.84626,-54.09684
2021-06-19 18:59:00+00:00,322.6397,10.5,14.08,47.84626,-54.09684
2021-06-19 19:09:00+00:00,325.6013,10.3,14.08,47.84626,-54.09684
2021-06-19 19:19:00+00:00,330.468,10.38,14.0,47.84626,-54.09684
2021-06-19 19:29:00+00:00,328.1063,10.49,14.0,47.84626,-54.09684
2021-06-19 19:39:00+00:00,324.9263,10.47,14.0,47.84626,-54.09684
2021-06-19 19:49:00+00:00,326.2197,10.4,14.0,47.84626,-54.09684
2021-06-19 19:59:00+00:00,326.7781,10.27,14.0,47.84626,-54.09684
2021-06-19 20:09:00+00:00,321.5779,10.45,14.0,47.84626,-54.09684
2021-06-19 20:19:00+00:00,314.3947,10.7,13.92,47.84626,-54.09684
2021-06-19 20:29:00+00:00,313.423,11.01,13.92,47.84626,-54.09684
2021-06-19 20:39:00+00:00,308.7513,11.2,13.92,47.84626,-54.09684
2021-06-19 20:49:00+00:00,303.4147,11.3,13.92,47.84626,-54.09684
2021-06-19 20:59:00+00:00,301.078,11.3,13.92,47.84626,-54.09684
2021-06-19 21:09:00+00:00,296.4897,11.37,13.92,47.84626,-54.09684
2021-06-19 21:19:00+00:00,291.888,11.5,13.76,47.84626,-54.09684
2021-06-19 21:29:00+00:00,283.113,11.5,13.76,47.84626,-54.09684
2021-06-19 21:39:00+00:00,277.1514,11.4,13.76,47.84626,-54.09684
2021-06-19 21:49:00+00:00,270.2164,11.3,13.76,47.84626,-54.09684
2021-06-19 21:59:00+00:00,262.973,11.2,13.76,47.84626,-54.09684
2021-06-19 22:09:00+00:00,260.3697,11.2,13.76,47.84626,-54.09684
2021-06-19 22:19:00+00:00,252.6748,11.2,13.6,47.84626,-54.09684
2021-06-19 22:29:00+00:00,244.8397,11.3,13.6,47.84626,-54.09684
2021-06-19 22:39:00+00:00,242.2981,11.48,13.6,47.84626,-54.09684
2021-06-19 22:49:00+00:00,241.4614,11.61,13.6,47.84626,-54.09684
2021-06-19 22:59:00+00:00,234.0981,11.89,13.6,47.84626,-54.09684
2021-06-19 23:09:00+00:00,226.4381,12.07,13.6,47.84626,-54.09684
2021-06-19 23:19:01+00:00,226.7564,12.1,13.29,47.84626,-54.09684
2021-06-19 23:29:01+00:00,227.3281,12.0,13.29,47.84626,-54.09684
2021-06-19 23:39:01+00:00,219.8781,12.0,13.29,47.84626,-54.09684
2021-06-19 23:49:01+00:00,215.7048,12.0,13.29,47.84626,-54.09684
2021-06-19 23:59:01+00:00,218.1064,11.9,13.29,47.84626,-54.09684
